Flag for Russia Weather past 2 weeks in Ulyanovsk, Russia

Now
54 °F

Fog.


Feels Like: 54 °F
Forecast: 60 / 71 °F
Wind: No wind

Location: Ulyanovsk

Current Time: Aug 28, 2015 at 3:36:02 AM

Latest Report: Aug 28, 2015 at 3:00 AM


Visibility: 3 mi

Pressure: 29.98 "Hg

Humidity: 94%

Dew point: 52 °F

Location of UlyanovskLocation

Historic Weather in Ulyanovsk — Graph

°F

Ulyanovsk temperature yesterday

Maximum temperature yesterday: 79 °F (at 1:00 PM)
Minimum temperature yesterday: 48 °F (at 5:00 AM)
Average temperature yesterday: 65 °F

Past Weeks' High & Low Weather Summary

 TemperatureHumidityPressure
High84 °F (Aug 14, 1:00 PM)100% (Aug 14, 4:00 AM)30.24 "Hg (Aug 14, 4:00 AM)
Low43 °F (Aug 24, 4:00 AM)34% (Aug 13, 5:00 PM)29.71 "Hg (Aug 16, 3:00 PM)
Average61 °F68%29.98 "Hg
* Reported Aug 13 2:00 AM — Aug 28 2:00 AM, Ulyanovsk, Weather by CustomWeather, © 2015

Note: Actual official high and low records may vary slightly from our data, if they occured in-between our weather recording intervals... More about our weather records

Advertising

Ulyanovsk weather history for previous 24 hours

 ConditionsComfort  
Time TempWeatherWind HumidityBarometerVisibility
2:00 AM
Fri, Aug 28
55 °FFog.1 mph94%29.98 "Hg3 mi
1:00 AM59 °FFog.6 mph82%29.98 "Hg3 mi
12:00 AM59 °FFog.6 mph82%29.98 "Hg3 mi
11:00 PM
Thu, Aug 27
63 °FFog.3 mph83%29.98 "Hg3 mi
10:00 PM61 °FFog.6 mph83%29.98 "Hg3 mi
9:00 PM66 °FClear.6 mph78%29.98 "HgN/A
8:00 PM66 °FClear.6 mph78%29.98 "HgN/A
7:00 PM68 °FPartly sunny.3 mph69%29.95 "Hg5 mi
6:00 PM72 °FScattered clouds.3 mph69%29.95 "Hg5 mi
5:00 PM73 °FScattered clouds.1 mph61%29.92 "Hg5 mi
4:00 PM75 °FThunderstorms. Broken clouds.3 mph44%29.95 "Hg5 mi
3:00 PM79 °FThunderstorms. Broken clouds.10 mph39%29.92 "Hg5 mi
2:00 PM79 °FScattered clouds.8 mph39%29.92 "Hg5 mi
1:00 PM79 °FScattered clouds.1 mph39%29.92 "Hg5 mi
12:00 PM77 °FScattered clouds.8 mph42%29.95 "Hg5 mi
11:00 AM73 °FPassing clouds.3 mph41%29.95 "Hg5 mi
10:00 AM72 °FPassing clouds.3 mph47%29.95 "Hg5 mi
9:00 AM70 °FClear.3 mph50%29.95 "Hg5 mi
8:00 AM64 °FClear.3 mph56%29.95 "Hg5 mi
7:00 AM57 °FClear.1 mph77%29.98 "Hg5 mi
6:00 AM52 °FFog.3 mph88%29.98 "Hg1 mi
5:00 AM48 °FFog.1 mph94%29.98 "Hg1 mi
4:00 AM50 °FFog.1 mph94%29.98 "Hg3 mi
3:00 AM52 °FFog.3 mph94%29.98 "Hg3 mi
Weather by CustomWeather, © 2015

See weather overviewHow to use our weather pages